This demonstration page uses our WeatherBlox Daily Observations layout. Learn more.

Left ArrowRight Arrow

Hourly Observations for February 1, 2018

Temp ( °F °C ) Dew Point ( °F °C ) Humidity (%) Winds ( mph kmh ) Pressure ( in mb ) Visibility ( mi km ) Precip ( " mm )
12:53 am 00:53 Mostly Cloudy 34 1.1 26 -3.3 73 73 N 17 28 30.11 1020 10 16 0.00 0.00
1:53 am 01:53 Mostly Cloudy 29 -1.7 23 -5 78 78 NNE 16 26 30.16 1021 10 16 0.00 0.00
2:09 am 02:09 Partly Cloudy 29 -1.7 23 -5 78 78 NNE 16 26 30.21 1023 10 16 0.00 0.00
2:53 am 02:53 Partly Cloudy 28 -2.2 22 -5.6 78 78 N 15 24 30.18 1022 10 16 0.00 0.00
3:53 am 03:53 Cloudy 26 -3.3 21 -6.1 81 81 NNE 18 30 30.20 1023 10 16 0.00 0.00
4:31 am 04:31 Cloudy 23 -5 16 -8.9 74 74 N 21 33 30.30 1026 10 16 0.00 0.00
4:40 am 04:40 Cloudy 21 -6 16 -9 80 80 N 15 24 30.30 1026 10 16 0.00 0.00
4:53 am 04:53 Mostly Cloudy 22 -5.6 14 -10 71 71 NNE 17 28 30.23 1024 10 16 0.00 0.00
5:53 am 05:53 Cloudy 20 -6.7 11 -11.7 68 68 N 20 31 30.27 1025 10 16 0.00 0.00
6:53 am 06:53 Mostly Cloudy 18 -7.8 9 -12.8 68 68 N 20 31 30.33 1027 10 16 0.00 0.00
7:02 am 07:02 Partly Cloudy 18 -8 9 -13 68 68 N 21 33 30.42 1030 10 16 0.00 0.00
7:53 am 07:53 Sunny 15 -9.4 6 -14.4 67 67 N 18 30 30.38 1029 10 16 0.00 0.00
8:53 am 08:53 Sunny 14 -10 3 -16.1 61 61 N 20 31 30.43 1030 10 16 0.00 0.00
9:53 am 09:53 Sunny 15 -9.4 3 -16.1 59 59 N 20 31 30.46 1032 10 16 0.00 0.00
10:53 am 10:53 Sunny 17 -8.3 3 -16.1 54 54 N 15 24 30.49 1032 10 16 0.00 0.00
11:53 am 11:53 Sunny 18 -7.8 2 -16.7 49 49 N 13 20 30.50 1033 10 16 0.00 0.00
12:53 pm 12:53 Sunny 21 -6.1 3 -16.1 45 45 N 13 20 30.48 1032 10 16 0.00 0.00
1:53 pm 13:53 Sunny 21 -6.1 4 -15.6 47 47 N 15 24 30.48 1032 10 16 0.00 0.00
2:53 pm 14:53 Sunny 22 -5.6 3 -16.1 44 44 N 14 22 30.48 1032 10 16 0.00 0.00
3:53 pm 15:53 Partly Cloudy 22 -5.6 5 -15 48 48 N 13 20 30.50 1033 10 16 0.00 0.00
4:53 pm 16:53 Mostly Cloudy 21 -6.1 5 -15 50 50 N 8 13 30.52 1034 10 16 0.00 0.00
5:23 pm 17:23 Cloudy 21 -6.1 5 -15 50 50 NNE 8 13 30.59 1036 10 16 0.00 0.00
5:53 pm 17:53 Cloudy 20 -6.7 6 -14.4 55 55 N 6 9 30.54 1034 10 16 0.00 0.00
6:43 pm 18:43 Partly Cloudy 19 -7.2 5 -15 54 54 Calm 30.59 1036 10 16 0.00 0.00
6:53 pm 18:53 Mostly Clear 18 -7.8 5 -15 57 57 Calm 30.56 1035 10 16 0.00 0.00
7:53 pm 19:53 Clear 17 -8.3 6 -14.4 62 62 Calm 30.57 1035 10 16 0.00 0.00
8:53 pm 20:53 Clear 14 -10 6 -14.4 71 71 Calm 30.58 1036 10 16 0.00 0.00
9:53 pm 21:53 Clear 15 -9.4 5 -15 64 64 S 5 7 30.58 1036 10 16 0.00 0.00
10:53 pm 22:53 Clear 15 -9.4 4 -15.6 61 61 SSE 7 11 30.58 1036 10 16 0.00 0.00
11:32 pm 23:32 Mostly Cloudy 12 -11 3 -16 67 67 S 7 11 30.65 1038 10 16 0.00 0.00
11:39 pm 23:39 Partly Cloudy 13 -10.6 4 -15.6 67 67 S 7 11 30.65 1038 10 16 0.00 0.00
11:53 pm 23:53 Mostly Clear 13 -10.6 4 -15.6 67 67 S 7 11 30.57 1035 10 16 0.00 0.00

Powered by AerisWeather